,,,PA_Meas_PMT16A,,PR_Meas_QMR101_102,,RH_Meas_QMH101,,SR_Meas_QMS101,,TA_Meas_QMH101,,GenWind,,GenWind,
date,time,status,PA,status,PR,status,RH,status,SR,status,TA,status,DirAvg,status,SpdAvg,
2008-05-30, 00:00:04,VALID,1005.05,VALID,0,VALID,90.0971,VALID,0,VALID,25.1656,VALID,346,VALID,0.0566406,
2008-05-30, 00:01:04,VALID,1005.01,VALID,0,VALID,90.2725,VALID,0,VALID,25.1267,VALID,347,VALID,0.482422,
2008-05-30, 00:02:04,VALID,1005.02,VALID,0,VALID,90.3717,VALID,0,VALID,25.1072,VALID,347,VALID,0.353125,
2008-05-30, 00:03:04,VALID,1004.96,VALID,0,VALID,90.4633,VALID,0,VALID,25.0682,VALID,347,VALID,0.566016,
2008-05-30, 00:04:04,VALID,1004.91,VALID,0,VALID,90.5396,VALID,0,VALID,25.0079,VALID,9,VALID,0.305469,
2008-05-30, 00:05:04,VALID,1004.85,VALID,0,VALID,90.7074,VALID,0,VALID,24.9709,VALID,9,VALID,0.244531,
2008-05-30, 00:06:04,VALID,1004.84,VALID,0,VALID,90.8752,VALID,0,VALID,24.9106,VALID,360,VALID,0.489062,
2008-05-30, 00:07:04,VALID,1004.81,VALID,0,VALID,91.0736,VALID,0,VALID,24.9125,VALID,4,VALID,0.636328,
2008-05-30, 00:08:04,VALID,1004.77,VALID,0,VALID,91.1041,VALID,0,VALID,24.8735,VALID,352,VALID,0.240234,
2008-05-30, 00:09:04,VALID,1004.76,VALID,0,VALID,91.2033,VALID,0,VALID,24.854,VALID,353,VALID,0.254687,
2008-05-30, 00:10:04,VALID,1004.76,VALID,0,VALID,91.3711,VALID,0,VALID,24.7937,VALID,353,VALID,0,
2008-05-30, 00:11:04,VALID,1004.74,VALID,0,VALID,91.3864,VALID,0,VALID,24.7956,VALID,353,VALID,0,
2008-05-30, 00:12:04,VALID,1004.74,VALID,0,VALID,91.5008,VALID,0,VALID,24.7567,VALID,353,VALID,0,
2008-05-30, 00:13:04,VALID,1004.72,VALID,0,VALID,91.6457,VALID,0,VALID,24.7372,VALID,353,VALID,0.075,
2008-05-30, 00:14:04,VALID,1004.71,VALID,0,VALID,91.8059,VALID,0,VALID,24.7372,VALID,354,VALID,0.345703,
2008-05-30, 00:15:04,VALID,1004.7,VALID,0,VALID,91.8517,VALID,0,VALID,24.6964,VALID,354,VALID,0,
2008-05-30, 00:16:04,VALID,1004.71,VALID,0,VALID,92.0196,VALID,0,VALID,24.6983,VALID,354,VALID,0,
2008-05-30, 00:17:04,VALID,1004.71,VALID,0,VALID,92.0196,VALID,0,VALID,24.6593,VALID,354,VALID,0,
2008-05-30, 00:18:04,VALID,1004.69,VALID,0,VALID,92.0272,VALID,0,VALID,24.6593,VALID,354,VALID,0,
2008-05-30, 00:19:04,VALID,1004.71,VALID,0,VALID,92.1721,VALID,0,VALID,24.638,VALID,46,VALID,0.433594,
2008-05-30, 00:20:04,VALID,1004.69,VALID,0,VALID,92.2103,VALID,0,VALID,24.6593,VALID,35,VALID,0.579297,
2008-05-30, 00:21:04,VALID,1004.68,VALID,0,VALID,92.3705,VALID,0,VALID,24.6204,VALID,31,VALID,0.327734,
2008-05-30, 00:22:04,VALID,1004.67,VALID,0,VALID,92.4086,VALID,0,VALID,24.599,VALID,21,VALID,0,
2008-05-30, 00:23:04,VALID,1004.68,VALID,0,VALID,92.4163,VALID,0,VALID,24.6009,VALID,21,VALID,0.107422,
2008-05-30, 00:24:04,VALID,1004.66,VALID,0,VALID,92.3857,VALID,0,VALID,24.6009,VALID,21,VALID,0.200391,
2008-05-30, 00:25:04,VALID,1004.64,VALID,0,VALID,92.6528,VALID,0,VALID,24.5814,VALID,360,VALID,0.664063,
2008-05-30, 00:26:04,VALID,1004.64,VALID,0,VALID,92.8587,VALID,0,VALID,24.6204,VALID,3,VALID,0.594141,
2008-05-30, 00:27:04,VALID,1004.63,VALID,0,VALID,92.5383,VALID,0,VALID,24.6398,VALID,343,VALID,0.582422,
2008-05-30, 00:28:04,VALID,1004.63,VALID,0,VALID,92.3705,VALID,0,VALID,24.6204,VALID,345,VALID,0.517969,
2008-05-30, 00:29:04,VALID,1004.66,VALID,0,VALID,92.4925,VALID,0,VALID,24.5796,VALID,351,VALID,0.741406,
2008-05-30, 00:30:04,VALID,1004.63,VALID,0,VALID,92.6833,VALID,0,VALID,24.6204,VALID,347,VALID,0.742969,
2008-05-30, 00:31:04,VALID,1004.62,VALID,0,VALID,92.6146,VALID,0,VALID,24.6398,VALID,338,VALID,0.708984,
2008-05-30, 00:32:04,VALID,1004.61,VALID,0,VALID,92.5078,VALID,0,VALID,24.6593,VALID,344,VALID,0.785937,
2008-05-30, 00:33:04,VALID,1004.61,VALID,0,VALID,92.4925,VALID,0,VALID,24.6593,VALID,2,VALID,0.749219,
2008-05-30, 00:34:04,VALID,1004.61,VALID,0,VALID,92.3247,VALID,0,VALID,24.6593,VALID,353,VALID,0.502344,
2008-05-30, 00:35:04,VALID,1004.63,VALID,0,VALID,92.3247,VALID,0,VALID,24.6788,VALID,340,VALID,0.602344,
2008-05-30, 00:36:04,VALID,1004.62,VALID,0,VALID,92.3476,VALID,0,VALID,24.6593,VALID,340,VALID,0.551562,
2008-05-30, 00:37:04,VALID,1004.58,VALID,0,VALID,92.4315,VALID,0,VALID,24.6788,VALID,356,VALID,0.749609,
2008-05-30, 00:38:04,VALID,1004.57,VALID,0,VALID,92.4163,VALID,0,VALID,24.6574,VALID,1,VALID,0.781641,
2008-05-30, 00:39:04,VALID,1004.53,VALID,0,VALID,92.3781,VALID,0,VALID,24.6769,VALID,355,VALID,1.00703,
2008-05-30, 00:40:04,VALID,1004.51,VALID,0,VALID,92.3705,VALID,0,VALID,24.6788,VALID,355,VALID,0.766797,
2008-05-30, 00:41:04,VALID,1004.53,VALID,0,VALID,92.3552,VALID,0,VALID,24.6593,VALID,354,VALID,0.844922,
2008-05-30, 00:42:04,VALID,1004.52,VALID,0,VALID,92.3552,VALID,0,VALID,24.638,VALID,3,VALID,0.472266,
2008-05-30, 00:43:04,VALID,1004.49,VALID,0,VALID,92.5002,VALID,0,VALID,24.6398,VALID,3,VALID,0.28125,
2008-05-30, 00:44:04,VALID,1004.48,VALID,0,VALID,92.5917,VALID,0,VALID,24.6204,VALID,3,VALID,0.645312,
2008-05-30, 00:45:04,VALID,1004.43,VALID,0,VALID,92.6909,VALID,0,VALID,24.6204,VALID,346,VALID,0.721484,
2008-05-30, 00:46:04,VALID,1004.41,VALID,0,VALID,92.6146,VALID,0,VALID,24.6398,VALID,7,VALID,0.915234,
2008-05-30, 00:47:04,VALID,1004.39,VALID,0,VALID,92.6222,VALID,0,VALID,24.6398,VALID,14,VALID,0.220313,
2008-05-30, 00:48:04,VALID,1004.42,VALID,0,VALID,92.6299,VALID,0,VALID,24.599,VALID,14,VALID,0.337891,
2008-05-30, 00:49:04,VALID,1004.39,VALID,0,VALID,92.6146,VALID,0,VALID,24.599,VALID,14,VALID,0,
2008-05-30, 00:50:04,VALID,1004.36,VALID,0,VALID,92.7443,VALID,0,VALID,24.5814,VALID,13,VALID,0.326562,
2008-05-30, 00:51:04,VALID,1004.37,VALID,0,VALID,92.9579,VALID,0,VALID,24.6009,VALID,23,VALID,0.672656,
2008-05-30, 00:52:04,VALID,1004.3,VALID,0,VALID,92.9884,VALID,0,VALID,24.6398,VALID,344,VALID,0.703516,
2008-05-30, 00:53:04,VALID,1004.28,VALID,0,VALID,92.7367,VALID,0,VALID,24.6788,VALID,340,VALID,0.630469,
2008-05-30, 00:54:04,VALID,1004.26,VALID,0,VALID,92.5688,VALID,0,VALID,24.7177,VALID,345,VALID,0.826953,
2008-05-30, 00:55:04,VALID,1004.24,VALID,0,VALID,92.4315,VALID,0,VALID,24.7372,VALID,354,VALID,0.943359,
2008-05-30, 00:56:04,VALID,1004.22,VALID,0,VALID,92.3095,VALID,0,VALID,24.7761,VALID,352,VALID,0.899609,
2008-05-30, 00:57:04,VALID,1004.2,VALID,0,VALID,92.2027,VALID,0,VALID,24.7956,VALID,341,VALID,0.974219,
2008-05-30, 00:58:04,VALID,1004.2,VALID,0,VALID,92.073,VALID,0,VALID,24.8151,VALID,357,VALID,1.13516,
2008-05-30, 00:59:04,VALID,1004.21,VALID,0,VALID,92.0119,VALID,0,VALID,24.8132,VALID,358,VALID,1.42383,
2008-05-30, 01:00:04,VALID,1004.19,VALID,0,VALID,91.8212,VALID,0,VALID,24.8735,VALID,350,VALID,1.61406,
2008-05-30, 01:01:04,VALID,1004.18,VALID,0,VALID,91.5008,VALID,0,VALID,24.9125,VALID,345,VALID,1.17305,
2008-05-30, 01:02:04,VALID,1004.15,VALID,0,VALID,91.2567,VALID,0,VALID,24.9319,VALID,351,VALID,1.2832,
2008-05-30, 01:03:04,VALID,1004.17,VALID,0,VALID,91.1041,VALID,0,VALID,24.9495,VALID,348,VALID,1.39531,
2008-05-30, 01:04:04,VALID,1004.17,VALID,0,VALID,90.8829,VALID,0,VALID,24.9904,VALID,353,VALID,0.857031,
2008-05-30, 01:05:04,VALID,1004.18,VALID,0,VALID,90.8752,VALID,0,VALID,24.969,VALID,352,VALID,1.16016,
2008-05-30, 01:06:04,VALID,1004.19,VALID,0,VALID,90.8676,VALID,0,VALID,24.9885,VALID,348,VALID,1.00664,
2008-05-30, 01:07:04,VALID,1004.19,VALID,0,VALID,90.8447,VALID,0,VALID,24.9904,VALID,349,VALID,1.07539,
2008-05-30, 01:08:04,VALID,1004.2,VALID,0,VALID,90.8752,VALID,0,VALID,24.9904,VALID,354,VALID,0.9125,
2008-05-30, 01:09:04,VALID,1004.19,VALID,0,VALID,90.8981,VALID,0,VALID,24.9709,VALID,343,VALID,0.953125,
2008-05-30, 01:10:04,VALID,1004.22,VALID,0,VALID,90.8676,VALID,0,VALID,24.9709,VALID,347,VALID,1.10859,
2008-05-30, 01:11:04,VALID,1004.2,VALID,0,VALID,90.8142,VALID,0,VALID,24.9709,VALID,354,VALID,1.03398,
2008-05-30, 01:12:04,VALID,1004.24,VALID,0,VALID,90.8066,VALID,0.100563,VALID,24.9495,VALID,359,VALID,0.914453,
2008-05-30, 01:13:04,VALID,1004.23,VALID,0,VALID,90.776,VALID,0,VALID,24.9709,VALID,355,VALID,0.757813,
2008-05-30, 01:14:04,VALID,1004.23,VALID,0,VALID,90.7608,VALID,0,VALID,24.9709,VALID,351,VALID,0.712891,
2008-05-30, 01:15:04,VALID,1004.23,VALID,0,VALID,90.7379,VALID,0,VALID,24.9495,VALID,349,VALID,0.585547,
2008-05-30, 01:16:04,VALID,1004.24,VALID,0,VALID,90.6845,VALID,0,VALID,24.9495,VALID,349,VALID,0.644531,
2008-05-30, 01:17:04,VALID,1004.26,VALID,0,VALID,90.6845,VALID,0,VALID,24.9728,VALID,341,VALID,0.679688,
2008-05-30, 01:18:04,VALID,1004.28,VALID,0,VALID,90.7303,VALID,0,VALID,24.9514,VALID,349,VALID,0.749609,
2008-05-30, 01:19:04,VALID,1004.32,VALID,0,VALID,90.715,VALID,0,VALID,24.9533,VALID,344,VALID,0.760156,
2008-05-30, 01:20:04,VALID,1004.32,VALID,0,VALID,90.8142,VALID,0,VALID,24.9125,VALID,350,VALID,0.764844,
2008-05-30, 01:21:04,VALID,1004.32,VALID,0,VALID,90.8371,VALID,0,VALID,24.893,VALID,347,VALID,0.8375,
2008-05-30, 01:22:04,VALID,1004.32,VALID,0,VALID,90.8981,VALID,0,VALID,24.893,VALID,354,VALID,0.837891,
2008-05-30, 01:23:04,VALID,1004.33,VALID,0,VALID,90.9591,VALID,0,VALID,24.8735,VALID,354,VALID,0.794922,
2008-05-30, 01:24:04,VALID,1004.35,VALID,0,VALID,91.0278,VALID,0,VALID,24.8754,VALID,354,VALID,0.708203,
2008-05-30, 01:25:04,VALID,1004.34,VALID,0,VALID,91.0507,VALID,0,VALID,24.8346,VALID,345,VALID,0.909375,
2008-05-30, 01:26:04,VALID,1004.34,VALID,0,VALID,91.1422,VALID,0,VALID,24.8346,VALID,349,VALID,0.997656,
2008-05-30, 01:27:04,VALID,1004.36,VALID,0,VALID,91.2567,VALID,0,VALID,24.854,VALID,359,VALID,0.964844,
2008-05-30, 01:28:04,VALID,1004.3,VALID,0,VALID,91.188,VALID,0,VALID,24.854,VALID,343,VALID,1.01641,
2008-05-30, 01:29:04,VALID,1004.33,VALID,0,VALID,91.1651,VALID,0,VALID,24.854,VALID,345,VALID,0.802344,
2008-05-30, 01:30:04,VALID,1004.32,VALID,0,VALID,91.1575,VALID,0,VALID,24.8735,VALID,357,VALID,0.848828,
2008-05-30, 01:31:04,VALID,1004.28,VALID,0,VALID,91.2033,VALID,0,VALID,24.854,VALID,355,VALID,0.803125,
2008-05-30, 01:32:04,VALID,1004.28,VALID,0,VALID,91.2262,VALID,0,VALID,24.8754,VALID,348,VALID,0.870313,
2008-05-30, 01:33:04,VALID,1004.27,VALID,0,VALID,91.188,VALID,0,VALID,24.8132,VALID,347,VALID,0.800391,
2008-05-30, 01:34:04,VALID,1004.25,VALID,0,VALID,91.2414,VALID,0,VALID,24.854,VALID,354,VALID,0.723047,
2008-05-30, 01:35:04,VALID,1004.25,VALID,0,VALID,91.2948,VALID,0,VALID,24.8346,VALID,342,VALID,0.626562,
2008-05-30, 01:36:04,VALID,1004.27,VALID,0,VALID,91.2643,VALID,0,VALID,24.8559,VALID,350,VALID,0.648828,
2008-05-30, 01:37:04,VALID,1004.28,VALID,0,VALID,91.2719,VALID,0,VALID,24.854,VALID,356,VALID,0.851953,
2008-05-30, 01:38:04,VALID,1004.31,VALID,0,VALID,91.2872,VALID,0,VALID,24.8346,VALID,358,VALID,0.410937,
2008-05-30, 01:39:04,VALID,1004.35,VALID,0,VALID,91.3787,VALID,0,VALID,24.8346,VALID,358,VALID,0.398438,
2008-05-30, 01:40:04,VALID,1004.31,VALID,0,VALID,91.4703,VALID,0,VALID,24.8151,VALID,357,VALID,0.46875,
2008-05-30, 01:41:04,VALID,1004.3,VALID,0,VALID,91.4932,VALID,0,VALID,24.8346,VALID,354,VALID,0.334375,
2008-05-30, 01:42:04,VALID,1004.3,VALID,0,VALID,91.5466,VALID,0,VALID,24.8559,VALID,355,VALID,0.539844,
2008-05-30, 01:43:04,VALID,1004.29,VALID,0,VALID,91.6,VALID,0,VALID,24.8346,VALID,1,VALID,0.783203,
2008-05-30, 01:44:04,VALID,1004.31,VALID,0,VALID,91.6686,VALID,0,VALID,24.8346,VALID,2,VALID,0.345313,
2008-05-30, 01:45:04,VALID,1004.29,VALID,0,VALID,91.4855,VALID,0,VALID,24.8346,VALID,2,VALID,0.328516,
2008-05-30, 01:46:04,VALID,1004.25,VALID,0,VALID,91.4703,VALID,0,VALID,24.7956,VALID,19,VALID,0.287109,
2008-05-30, 01:47:04,VALID,1004.25,VALID,0,VALID,91.5923,VALID,0,VALID,24.7956,VALID,22,VALID,0.413281,
2008-05-30, 01:48:04,VALID,1004.2,VALID,0,VALID,91.7144,VALID,0,VALID,24.7761,VALID,22,VALID,0.138672,
2008-05-30, 01:49:04,VALID,1004.19,VALID,0,VALID,91.7602,VALID,0,VALID,24.7567,VALID,14,VALID,0.353125,
2008-05-30, 01:50:04,VALID,1004.17,VALID,0,VALID,91.7449,VALID,0,VALID,24.7177,VALID,14,VALID,0.463281,
2008-05-30, 01:51:04,VALID,1004.18,VALID,0,VALID,91.7831,VALID,0,VALID,24.6983,VALID,14,VALID,0.266016,
2008-05-30, 01:52:04,VALID,1004.16,VALID,0,VALID,91.9662,VALID,0,VALID,24.6593,VALID,14,VALID,0.340234,
2008-05-30, 01:53:04,VALID,1004.15,VALID,0,VALID,92.1035,VALID,0,VALID,24.6398,VALID,25,VALID,0.764844,
2008-05-30, 01:54:04,VALID,1004.16,VALID,0,VALID,92.3171,VALID,0,VALID,24.6204,VALID,33,VALID,0.887109,
2008-05-30, 01:55:04,VALID,1004.13,VALID,0,VALID,92.7138,VALID,0,VALID,24.6788,VALID,38,VALID,0.993359,
2008-05-30, 01:56:04,VALID,1004.1,VALID,0,VALID,92.5841,VALID,0,VALID,24.7567,VALID,34,VALID,1.22266,
2008-05-30, 01:57:04,VALID,1004.07,VALID,0,VALID,92.4849,VALID,0,VALID,24.854,VALID,34,VALID,0.901563,
2008-05-30, 01:58:04,VALID,1004.11,VALID,0,VALID,91.9738,VALID,0,VALID,24.893,VALID,12,VALID,0.390625,
2008-05-30, 01:59:04,VALID,1004.07,VALID,0,VALID,91.7754,VALID,0,VALID,24.9338,VALID,36,VALID,0.529297,
2008-05-30, 02:00:04,VALID,1004.08,VALID,0,VALID,91.7449,VALID,0,VALID,24.9319,VALID,40,VALID,0.942969,
2008-05-30, 02:01:04,VALID,1004.08,VALID,0,VALID,91.6152,VALID,0,VALID,24.93,VALID,34,VALID,0.733594,
2008-05-30, 02:02:04,VALID,1004.02,VALID,0,VALID,91.6381,VALID,0,VALID,24.9904,VALID,60,VALID,0.829297,
2008-05-30, 02:03:04,VALID,1004.06,VALID,0,VALID,91.4703,VALID,0,VALID,25.0274,VALID,49,VALID,0.437109,
2008-05-30, 02:04:04,VALID,1004.05,VALID,0,VALID,91.1956,VALID,0,VALID,25.0877,VALID,39,VALID,0.633203,
2008-05-30, 02:05:04,VALID,1004.01,VALID,0,VALID,91.0812,VALID,0,VALID,25.0877,VALID,38,VALID,0.742188,
2008-05-30, 02:06:04,VALID,1004.04,VALID,0,VALID,90.9668,VALID,0,VALID,25.1461,VALID,33,VALID,0.841016,
2008-05-30, 02:07:04,VALID,1004.02,VALID,0,VALID,90.776,VALID,0,VALID,25.2046,VALID,25,VALID,0.490234,
2008-05-30, 02:08:04,VALID,1004.03,VALID,0,VALID,90.3107,VALID,0,VALID,25.224,VALID,7,VALID,0.489062,
2008-05-30, 02:09:04,VALID,1004.03,VALID,0,VALID,90.1581,VALID,0,VALID,25.2046,VALID,2,VALID,0.397656,
2008-05-30, 02:10:04,VALID,1004.02,VALID,0,VALID,90.12,VALID,0,VALID,25.1461,VALID,356,VALID,0.439063,
2008-05-30, 02:11:04,VALID,1003.99,VALID,0,VALID,90.2497,VALID,0,VALID,25.0877,VALID,16,VALID,0.605078,
2008-05-30, 02:12:04,VALID,1004.01,VALID,0,VALID,90.4556,VALID,0,VALID,25.0098,VALID,16,VALID,0.320703,
2008-05-30, 02:13:04,VALID,1003.99,VALID,0,VALID,90.509,VALID,0,VALID,24.9709,VALID,16,VALID,0.535937,
2008-05-30, 02:14:04,VALID,1003.98,VALID,0,VALID,91.0812,VALID,0,VALID,24.8911,VALID,343,VALID,0.791797,
2008-05-30, 02:15:04,VALID,1004.01,VALID,0,VALID,91.2185,VALID,0,VALID,24.9143,VALID,341,VALID,0.789844,
2008-05-30, 02:16:04,VALID,1003.97,VALID,0,VALID,91.3101,VALID,0,VALID,24.8735,VALID,1,VALID,0.332031,
2008-05-30, 02:17:04,VALID,1003.94,VALID,0,VALID,91.3253,VALID,0,VALID,24.8346,VALID,28,VALID,0.897656,
2008-05-30, 02:18:04,VALID,1003.92,VALID,0,VALID,91.4703,VALID,0,VALID,24.8151,VALID,13,VALID,0.780859,
2008-05-30, 02:19:04,VALID,1003.89,VALID,0,VALID,91.6457,VALID,0,VALID,24.8346,VALID,339,VALID,0.632422,
2008-05-30, 02:20:04,VALID,1003.9,VALID,0,VALID,91.4245,VALID,0,VALID,24.7743,VALID,353,VALID,0.577344,
2008-05-30, 02:21:04,VALID,1003.89,VALID,0,VALID,91.5466,VALID,0,VALID,24.7567,VALID,353,VALID,0.419922,
2008-05-30, 02:22:04,VALID,1003.86,VALID,0,VALID,91.5771,VALID,0,VALID,24.7372,VALID,357,VALID,0.548828,
2008-05-30, 02:23:04,VALID,1003.86,VALID,0,VALID,91.9128,VALID,0,VALID,24.6769,VALID,22,VALID,0.372656,
2008-05-30, 02:24:04,VALID,1003.84,VALID,0,VALID,91.9509,VALID,0,VALID,24.7001,VALID,10,VALID,0.704297,
2008-05-30, 02:25:04,VALID,1003.84,VALID,0,VALID,92.1645,VALID,0,VALID,24.6983,VALID,17,VALID,0.464063,
2008-05-30, 02:26:04,VALID,1003.83,VALID,0,VALID,92.3018,VALID,0,VALID,24.7177,VALID,22,VALID,0.676953,
2008-05-30, 02:27:04,VALID,1003.88,VALID,0,VALID,92.195,VALID,0,VALID,24.778,VALID,8,VALID,0.704687,
2008-05-30, 02:28:04,VALID,1003.86,VALID,0,VALID,92.0272,VALID,0,VALID,24.7567,VALID,359,VALID,0.611719,
2008-05-30, 02:29:04,VALID,1003.91,VALID,0,VALID,91.8746,VALID,0,VALID,24.7567,VALID,344,VALID,0.492188,
2008-05-30, 02:30:04,VALID,1003.95,VALID,0,VALID,91.928,VALID,0,VALID,24.7372,VALID,357,VALID,0.726563,
2008-05-30, 02:31:04,VALID,1003.95,VALID,0,VALID,91.8975,VALID,0,VALID,24.7177,VALID,3,VALID,0.687109,
2008-05-30, 02:32:04,VALID,1003.97,VALID,0,VALID,91.8975,VALID,0,VALID,24.7372,VALID,11,VALID,0.66875,
2008-05-30, 02:33:04,VALID,1003.95,VALID,0,VALID,91.9204,VALID,0,VALID,24.6964,VALID,14,VALID,0.267188,
2008-05-30, 02:34:04,VALID,1003.95,VALID,0,VALID,92.0272,VALID,0,VALID,24.6788,VALID,14,VALID,0,
2008-05-30, 02:35:04,VALID,1003.94,VALID,0,VALID,91.989,VALID,0,VALID,24.6788,VALID,14,VALID,0,
2008-05-30, 02:36:04,VALID,1003.93,VALID,0,VALID,92.0424,VALID,0,VALID,24.6788,VALID,348,VALID,0.425,
2008-05-30, 02:37:04,VALID,1003.91,VALID,0,VALID,92.0424,VALID,0,VALID,24.6398,VALID,360,VALID,0.701563,
2008-05-30, 02:38:04,VALID,1003.86,VALID,0,VALID,92.1645,VALID,0,VALID,24.6593,VALID,353,VALID,0.710547,
2008-05-30, 02:39:04,VALID,1003.83,VALID,0,VALID,92.1111,VALID,0,VALID,24.6593,VALID,353,VALID,0.751953,
2008-05-30, 02:40:04,VALID,1003.85,VALID,0,VALID,92.0196,VALID,0,VALID,24.7001,VALID,351,VALID,0.646094,
2008-05-30, 02:41:04,VALID,1003.84,VALID,0,VALID,91.9967,VALID,0,VALID,24.6574,VALID,350,VALID,0.583594,
2008-05-30, 02:42:04,VALID,1003.81,VALID,0,VALID,91.9814,VALID,0,VALID,24.6788,VALID,320,VALID,0.333984,
2008-05-30, 02:43:04,VALID,1003.84,VALID,0,VALID,91.8975,VALID,0,VALID,24.6788,VALID,352,VALID,0.511328,
2008-05-30, 02:44:04,VALID,1003.8,VALID,0,VALID,91.9433,VALID,0,VALID,24.6593,VALID,352,VALID,0.429297,
2008-05-30, 02:45:04,VALID,1003.81,VALID,0,VALID,91.989,VALID,0,VALID,24.638,VALID,352,VALID,0.367969,
2008-05-30, 02:46:04,VALID,1003.8,VALID,0,VALID,92.0653,VALID,0,VALID,24.6398,VALID,342,VALID,0.422266,
2008-05-30, 02:47:04,VALID,1003.77,VALID,0,VALID,92.0501,VALID,0,VALID,24.6185,VALID,345,VALID,0.738672,
2008-05-30, 02:48:04,VALID,1003.75,VALID,0,VALID,92.1416,VALID,0,VALID,24.6204,VALID,350,VALID,0.83125,
2008-05-30, 02:49:04,VALID,1003.72,VALID,0,VALID,92.2027,VALID,0,VALID,24.6009,VALID,346,VALID,0.803125,
2008-05-30, 02:50:04,VALID,1003.7,VALID,0,VALID,92.2179,VALID,0,VALID,24.599,VALID,348,VALID,1.1582,
2008-05-30, 02:51:04,VALID,1003.7,VALID,0,VALID,92.2179,VALID,0,VALID,24.6009,VALID,349,VALID,0.964453,
2008-05-30, 02:52:04,VALID,1003.68,VALID,0,VALID,92.195,VALID,0,VALID,24.6222,VALID,348,VALID,1.07734,
2008-05-30, 02:53:04,VALID,1003.68,VALID,0,VALID,92.2255,VALID,0,VALID,24.6009,VALID,350,VALID,0.975781,
2008-05-30, 02:54:04,VALID,1003.67,VALID,0,VALID,92.2408,VALID,0,VALID,24.6009,VALID,351,VALID,0.828125,
2008-05-30, 02:55:04,VALID,1003.66,VALID,0,VALID,92.2789,VALID,0,VALID,24.6009,VALID,347,VALID,0.805078,
2008-05-30, 02:56:04,VALID,1003.65,VALID,0,VALID,92.2637,VALID,0,VALID,24.6204,VALID,359,VALID,0.646875,
2008-05-30, 02:57:04,VALID,1003.64,VALID,0,VALID,92.195,VALID,0,VALID,24.6204,VALID,350,VALID,0.825391,
2008-05-30, 02:58:04,VALID,1003.61,VALID,0,VALID,92.0958,VALID,0,VALID,24.6204,VALID,358,VALID,0.757813,
2008-05-30, 02:59:04,VALID,1003.59,VALID,0,VALID,92.134,VALID,0,VALID,24.5796,VALID,350,VALID,0.434766,
2008-05-30, 03:00:04,VALID,1003.6,VALID,0,VALID,92.2255,VALID,0,VALID,24.6009,VALID,309,VALID,0.203125,
2008-05-30, 03:01:04,VALID,1003.62,VALID,0,VALID,92.2637,VALID,0,VALID,24.5814,VALID,352,VALID,0.744141,
2008-05-30, 03:02:04,VALID,1003.62,VALID,0,VALID,92.2561,VALID,0,VALID,24.5814,VALID,354,VALID,0.645703,
2008-05-30, 03:03:04,VALID,1003.63,VALID,0,VALID,92.1569,VALID,0,VALID,24.562,VALID,355,VALID,0.741406,
2008-05-30, 03:04:04,VALID,1003.61,VALID,0,VALID,92.2027,VALID,0,VALID,24.5443,VALID,360,VALID,0.725781,
2008-05-30, 03:05:04,VALID,1003.65,VALID,0,VALID,92.2637,VALID,0,VALID,24.5054,VALID,2,VALID,0.819141,
2008-05-30, 03:06:04,VALID,1003.63,VALID,0,VALID,92.5307,VALID,0,VALID,24.4451,VALID,350,VALID,0.957422,
2008-05-30, 03:07:04,VALID,1003.61,VALID,0,VALID,92.8816,VALID,0,VALID,24.4628,VALID,335,VALID,1.10898,
2008-05-30, 03:08:04,VALID,1003.62,VALID,0,VALID,92.5765,VALID,0,VALID,24.523,VALID,348,VALID,0.747266,
2008-05-30, 03:09:04,VALID,1003.62,VALID,0,VALID,92.5002,VALID,0,VALID,24.562,VALID,359,VALID,1.07031,
2008-05-30, 03:10:04,VALID,1003.63,VALID,0,VALID,92.2866,VALID,0,VALID,24.6204,VALID,353,VALID,0.989062,
2008-05-30, 03:11:04,VALID,1003.65,VALID,0,VALID,92.0424,VALID,0,VALID,24.6398,VALID,347,VALID,0.598047,
2008-05-30, 03:12:04,VALID,1003.68,VALID,0,VALID,92.0196,VALID,0,VALID,24.6398,VALID,359,VALID,0.9625,
2008-05-30, 03:13:04,VALID,1003.72,VALID,0,VALID,92.0272,VALID,0,VALID,24.6398,VALID,5,VALID,0.876562,
2008-05-30, 03:14:04,VALID,1003.74,VALID,0,VALID,92.1187,VALID,0,VALID,24.6593,VALID,338,VALID,0.696484,
2008-05-30, 03:15:04,VALID,1003.74,VALID,0,VALID,92.0958,VALID,0,VALID,24.6983,VALID,346,VALID,0.994922,
2008-05-30, 03:16:04,VALID,1003.75,VALID,0,VALID,91.9738,VALID,0,VALID,24.7567,VALID,349,VALID,1.12734,
2008-05-30, 03:17:04,VALID,1003.77,VALID,0,VALID,91.6229,VALID,0,VALID,24.8151,VALID,355,VALID,0.806641,
2008-05-30, 03:18:04,VALID,1003.74,VALID,0,VALID,91.4398,VALID,0,VALID,24.8151,VALID,316,VALID,0.392188,
2008-05-30, 03:19:04,VALID,1003.79,VALID,0,VALID,91.4169,VALID,0,VALID,24.8151,VALID,360,VALID,0.302344,
2008-05-30, 03:20:04,VALID,1003.78,VALID,0,VALID,91.3635,VALID,0,VALID,24.8346,VALID,352,VALID,0.65,
2008-05-30, 03:21:04,VALID,1003.79,VALID,0,VALID,91.3101,VALID,0,VALID,24.8151,VALID,351,VALID,0.757422,
2008-05-30, 03:22:04,VALID,1003.78,VALID,0,VALID,91.3024,VALID,0,VALID,24.8151,VALID,358,VALID,1.09531,
2008-05-30, 03:23:04,VALID,1003.77,VALID,0,VALID,91.1651,VALID,0,VALID,24.7761,VALID,359,VALID,1,
2008-05-30, 03:24:04,VALID,1003.74,VALID,0,VALID,91.3864,VALID,0,VALID,24.7372,VALID,354,VALID,0.791406,
2008-05-30, 03:25:04,VALID,1003.72,VALID,0,VALID,91.4245,VALID,0,VALID,24.6788,VALID,354,VALID,0.734375,
2008-05-30, 03:26:04,VALID,1003.69,VALID,0,VALID,91.7449,VALID,0,VALID,24.6612,VALID,347,VALID,0.975391,
2008-05-30, 03:27:04,VALID,1003.7,VALID,0,VALID,91.9356,VALID,0,VALID,24.6204,VALID,357,VALID,0.850781,
2008-05-30, 03:28:04,VALID,1003.7,VALID,0,VALID,91.8899,VALID,0,VALID,24.6204,VALID,355,VALID,0.809375,
2008-05-30, 03:29:04,VALID,1003.72,VALID,0,VALID,92.0119,VALID,0,VALID,24.5814,VALID,4,VALID,0.889063,
2008-05-30, 03:30:04,VALID,1003.72,VALID,0,VALID,92.1187,VALID,0,VALID,24.5212,VALID,1,VALID,0.679297,
2008-05-30, 03:31:04,VALID,1003.71,VALID,0,VALID,92.1874,VALID,0,VALID,24.523,VALID,343,VALID,0.654297,
2008-05-30, 03:32:04,VALID,1003.73,VALID,0,VALID,92.3857,VALID,0,VALID,24.5035,VALID,345,VALID,0.845703,
2008-05-30, 03:33:04,VALID,1003.71,VALID,0,VALID,92.4697,VALID,0,VALID,24.5035,VALID,358,VALID,0.748828,
2008-05-30, 03:34:04,VALID,1003.72,VALID,0,VALID,92.5536,VALID,0,VALID,24.523,VALID,346,VALID,0.643359,
2008-05-30, 03:35:04,VALID,1003.74,VALID,0,VALID,92.6451,VALID,0,VALID,24.562,VALID,340,VALID,0.298438,
2008-05-30, 03:36:04,VALID,1003.73,VALID,0,VALID,92.5765,VALID,0,VALID,24.5814,VALID,349,VALID,0.719922,
2008-05-30, 03:37:04,VALID,1003.72,VALID,0,VALID,92.4849,VALID,0,VALID,24.5814,VALID,297,VALID,0.365625,
2008-05-30, 03:38:04,VALID,1003.79,VALID,0,VALID,92.3629,VALID,0,VALID,24.6222,VALID,1,VALID,0.663281,
2008-05-30, 03:39:04,VALID,1003.77,VALID,0,VALID,92.2637,VALID,0,VALID,24.562,VALID,2,VALID,0.541797,
2008-05-30, 03:40:04,VALID,1003.85,VALID,0,VALID,92.3552,VALID,0,VALID,24.5406,VALID,358,VALID,1.10156,
2008-05-30, 03:41:04,VALID,1003.81,VALID,0,VALID,92.4163,VALID,0,VALID,24.5425,VALID,324,VALID,0.317969,
2008-05-30, 03:42:04,VALID,1003.85,VALID,0,VALID,92.3934,VALID,0,VALID,24.5425,VALID,8,VALID,0.901172,
2008-05-30, 03:43:04,VALID,1003.89,VALID,0,VALID,92.3018,VALID,0,VALID,24.562,VALID,358,VALID,0.587109,
2008-05-30, 03:44:04,VALID,1003.9,VALID,0,VALID,92.34,VALID,0,VALID,24.562,VALID,357,VALID,0.248047,
2008-05-30, 03:45:04,VALID,1003.91,VALID,0,VALID,92.3552,VALID,0,VALID,24.5425,VALID,357,VALID,0.220313,
2008-05-30, 03:46:04,VALID,1003.95,VALID,0,VALID,92.2179,VALID,0,VALID,24.5425,VALID,24,VALID,1.17227,